Time,TemperatureF,DewpointF,PressureIn,WindDirection,WindDirectionDegrees,WindSpeedMPH,WindSpeedGustMPH,Humidity,HourlyPrecipIn,Conditions,Clouds,dailyrainin,SoftwareType,DateUTC
2013-07-03 00:00:00,67.4,67.4,30.12,ESE,115,0.0,5.0,100,0.00,,,0.74,Wunderground v.1.15,2013-07-03 04:00:00,
2013-07-03 00:10:00,67.1,67.1,30.11,ESE,115,0.0,0.0,100,0.00,,,0.00,Wunderground v.1.15,2013-07-03 04:10:00,
2013-07-03 00:20:00,67.3,67.3,30.12,ESE,115,0.0,0.0,100,0.00,,,0.00,Wunderground v.1.15,2013-07-03 04:20:00,
2013-07-03 00:30:00,67.1,67.1,30.12,ESE,115,0.0,0.0,100,0.00,,,0.00,Wunderground v.1.15,2013-07-03 04:30:00,
2013-07-03 00:40:00,67.4,67.4,30.12,ESE,115,0.0,0.0,100,0.00,,,0.00,Wunderground v.1.15,2013-07-03 04:40:00,
2013-07-03 00:50:00,68.4,68.4,30.12,ESE,115,0.0,0.0,100,0.00,,,0.00,Wunderground v.1.15,2013-07-03 04:50:00,
2013-07-03 01:00:00,68.6,68.6,30.12,ESE,115,0.0,0.0,100,0.00,,,0.00,Wunderground v.1.15,2013-07-03 05:00:00,
2013-07-03 01:10:00,68.8,68.8,30.12,ESE,115,0.0,0.0,100,0.00,,,0.00,Wunderground v.1.15,2013-07-03 05:10:00,
2013-07-03 01:20:00,68.8,68.8,30.11,ESE,115,0.0,0.0,100,0.00,,,0.00,Wunderground v.1.15,2013-07-03 05:20:00,
2013-07-03 01:30:00,68.8,68.8,30.10,ESE,115,0.0,0.0,100,0.00,,,0.00,Wunderground v.1.15,2013-07-03 05:30:00,
2013-07-03 01:40:00,68.9,68.9,30.10,ESE,115,0.0,0.0,100,0.00,,,0.00,Wunderground v.1.15,2013-07-03 05:40:00,
2013-07-03 01:50:00,68.8,68.8,30.10,ESE,115,0.0,0.0,100,0.00,,,0.00,Wunderground v.1.15,2013-07-03 05:50:00,
2013-07-03 02:00:00,68.8,68.8,30.10,ESE,115,0.0,0.0,100,0.00,,,0.00,Wunderground v.1.15,2013-07-03 06:00:00,
2013-07-03 02:10:00,68.8,68.8,30.10,ESE,115,0.0,0.0,100,0.00,,,0.00,Wunderground v.1.15,2013-07-03 06:10:00,
2013-07-03 02:20:00,69.4,69.4,30.10,ESE,115,0.0,0.0,100,0.00,,,0.00,Wunderground v.1.15,2013-07-03 06:20:00,
2013-07-03 02:30:00,69.4,69.4,30.10,ESE,115,0.0,0.0,100,0.00,,,0.00,Wunderground v.1.15,2013-07-03 06:30:00,
2013-07-03 02:40:00,69.8,69.8,30.10,ESE,115,0.0,0.0,100,0.00,,,0.00,Wunderground v.1.15,2013-07-03 06:40:00,
2013-07-03 02:50:00,70.1,70.1,30.10,ESE,115,0.0,0.0,100,0.00,,,0.00,Wunderground v.1.15,2013-07-03 06:50:00,
2013-07-03 03:00:00,69.4,69.4,30.10,ESE,115,0.0,0.0,100,0.00,,,0.00,Wunderground v.1.15,2013-07-03 07:00:00,
2013-07-03 03:10:00,70.1,70.1,30.10,ESE,115,0.0,0.0,100,0.00,,,0.00,Wunderground v.1.15,2013-07-03 07:10:00,
2013-07-03 03:20:00,69.9,69.9,30.10,ESE,115,0.0,0.0,100,0.00,,,0.00,Wunderground v.1.15,2013-07-03 07:20:00,
2013-07-03 03:30:00,69.9,69.9,30.10,ESE,115,0.0,0.0,100,0.00,,,0.00,Wunderground v.1.15,2013-07-03 07:30:00,
2013-07-03 03:40:00,70.3,70.3,30.10,ESE,115,0.0,0.0,100,0.00,,,0.00,Wunderground v.1.15,2013-07-03 07:40:00,
2013-07-03 03:50:00,70.8,70.8,30.10,ESE,115,0.0,0.0,100,0.00,,,0.00,Wunderground v.1.15,2013-07-03 07:50:00,
2013-07-03 04:00:00,70.8,70.8,30.10,ESE,115,0.0,0.0,100,0.00,,,0.00,Wunderground v.1.15,2013-07-03 08:00:00,
2013-07-03 04:10:00,70.9,70.9,30.10,ESE,111,0.0,0.0,100,0.00,,,0.00,Wunderground v.1.15,2013-07-03 08:10:00,
2013-07-03 04:20:00,70.8,70.8,30.10,ESE,111,0.0,0.0,100,0.00,,,0.00,Wunderground v.1.15,2013-07-03 08:20:00,
2013-07-03 04:30:00,70.8,70.8,30.11,SE,138,1.0,1.0,100,0.00,,,0.00,Wunderground v.1.15,2013-07-03 08:30:00,
2013-07-03 04:40:00,70.8,70.8,30.11,SE,126,1.0,1.0,100,0.00,,,0.00,Wunderground v.1.15,2013-07-03 08:40:00,
2013-07-03 04:50:00,70.8,70.8,30.11,SE,126,0.0,2.0,100,0.00,,,0.00,Wunderground v.1.15,2013-07-03 08:50:00,
2013-07-03 05:00:00,70.8,70.8,30.11,SE,126,0.0,3.0,100,0.00,,,0.00,Wunderground v.1.15,2013-07-03 09:00:00,
2013-07-03 05:10:00,70.6,70.6,30.11,SE,126,0.0,0.0,100,0.00,,,0.00,Wunderground v.1.15,2013-07-03 09:10:00,
2013-07-03 05:20:00,70.6,70.6,30.11,ESE,121,0.0,0.0,100,0.00,,,0.00,Wunderground v.1.15,2013-07-03 09:20:00,
2013-07-03 05:30:00,70.6,70.6,30.12,ESE,112,1.0,3.0,100,0.00,,,0.00,Wunderground v.1.15,2013-07-03 09:30:00,
2013-07-03 05:40:00,70.6,70.6,30.12,SE,131,1.0,1.0,100,0.00,,,0.00,Wunderground v.1.15,2013-07-03 09:40:00,
2013-07-03 05:50:00,70.8,70.8,30.13,SE,141,1.0,1.0,100,0.00,,,0.00,Wunderground v.1.15,2013-07-03 09:50:00,
2013-07-03 06:00:00,70.8,70.8,30.13,ESE,114,1.0,5.0,100,0.00,,,0.00,Wunderground v.1.15,2013-07-03 10:00:00,
2013-07-03 06:10:00,70.8,70.8,30.13,ESE,121,1.0,3.0,100,0.00,,,0.00,Wunderground v.1.15,2013-07-03 10:10:00,
2013-07-03 06:20:00,70.9,70.9,30.14,SE,144,2.0,3.0,100,0.00,,,0.00,Wunderground v.1.15,2013-07-03 10:20:00,
2013-07-03 06:30:00,70.9,70.9,30.14,ESE,121,2.0,2.0,100,0.00,,,0.00,Wunderground v.1.15,2013-07-03 10:30:00,
2013-07-03 06:40:00,70.9,70.9,30.14,SE,126,2.0,2.0,100,0.00,,,0.00,Wunderground v.1.15,2013-07-03 10:40:00,
2013-07-03 06:50:00,70.9,70.9,30.15,ESE,121,1.0,1.0,100,0.00,,,0.00,Wunderground v.1.15,2013-07-03 10:50:00,
2013-07-03 07:00:00,71.1,71.1,30.15,SE,139,1.0,1.0,100,0.00,,,0.00,Wunderground v.1.15,2013-07-03 11:00:00,
2013-07-03 07:10:00,71.1,71.1,30.15,SSE,155,0.0,7.0,100,0.00,,,0.00,Wunderground v.1.15,2013-07-03 11:10:00,
2013-07-03 07:20:00,71.1,71.1,30.15,SE,145,0.0,7.0,100,0.00,,,0.00,Wunderground v.1.15,2013-07-03 11:20:00,
2013-07-03 07:30:00,71.3,71.3,30.15,SE,146,0.0,7.0,100,0.00,,,0.00,Wunderground v.1.15,2013-07-03 11:30:00,
2013-07-03 07:40:00,71.6,71.6,30.15,SE,145,0.0,7.0,100,0.00,,,0.00,Wunderground v.1.15,2013-07-03 11:40:00,
2013-07-03 07:50:00,71.6,71.6,30.16,SE,145,0.0,7.0,100,0.00,,,0.00,Wunderground v.1.15,2013-07-03 11:50:00,
2013-07-03 08:00:00,71.6,71.6,30.16,SE,146,0.0,7.0,100,0.00,,,0.00,Wunderground v.1.15,2013-07-03 12:00:00,
2013-07-03 08:10:00,71.6,71.6,30.16,ESE,108,0.0,7.0,100,0.00,,,0.00,Wunderground v.1.15,2013-07-03 12:10:00,
2013-07-03 08:20:00,71.8,71.8,30.16,ESE,108,0.0,7.0,100,0.00,,,0.00,Wunderground v.1.15,2013-07-03 12:20:00,
2013-07-03 08:30:00,72.0,72.0,30.16,ESE,108,0.0,7.0,100,0.00,,,0.00,Wunderground v.1.15,2013-07-03 12:30:00,
2013-07-03 08:40:00,72.1,72.1,30.16,SE,141,0.0,7.0,100,0.00,,,0.00,Wunderground v.1.15,2013-07-03 12:40:00,
2013-07-03 08:50:00,72.5,72.2,30.17,SE,143,0.0,7.0,99,0.00,,,0.00,Wunderground v.1.15,2013-07-03 12:50:00,
2013-07-03 09:00:00,72.8,72.5,30.17,ESE,110,1.0,1.0,99,0.00,,,0.00,Wunderground v.1.15,2013-07-03 13:00:00,
2013-07-03 09:10:00,73.0,72.4,30.17,SE,131,1.0,1.0,98,0.00,,,0.00,Wunderground v.1.15,2013-07-03 13:10:00,
2013-07-03 09:20:00,73.0,72.1,30.17,SE,131,1.0,1.0,97,0.00,,,0.00,Wunderground v.1.15,2013-07-03 13:20:00,
2013-07-03 09:30:00,73.0,72.1,30.17,ESE,121,1.0,1.0,97,0.00,,,0.00,Wunderground v.1.15,2013-07-03 13:30:00,
2013-07-03 09:40:00,73.0,71.8,30.17,SE,137,1.0,1.0,96,0.00,,,0.00,Wunderground v.1.15,2013-07-03 13:40:00,
2013-07-03 09:50:00,73.3,72.1,30.17,ESE,121,0.0,7.0,96,0.00,,,0.00,Wunderground v.1.15,2013-07-03 13:50:00,
2013-07-03 10:00:00,74.0,72.8,30.17,ESE,121,0.0,7.0,96,0.00,,,0.00,Wunderground v.1.15,2013-07-03 14:00:00,
2013-07-03 10:10:00,74.7,72.9,30.17,SE,136,1.0,7.0,94,0.00,,,0.00,Wunderground v.1.15,2013-07-03 14:10:00,
2013-07-03 10:20:00,76.0,72.9,30.17,East,86,1.0,7.0,90,0.00,,,0.00,Wunderground v.1.15,2013-07-03 14:20:00,
2013-07-03 10:30:00,76.7,73.2,30.17,SSE,150,1.0,7.0,89,0.00,,,0.00,Wunderground v.1.15,2013-07-03 14:30:00,
2013-07-03 10:50:00,76.7,72.9,30.17,SSE,150,0.0,7.0,88,0.00,,,0.00,Wunderground v.1.15,2013-07-03 14:50:00,
2013-07-03 11:00:00,76.3,72.5,30.17,ESE,111,1.0,1.0,88,0.00,,,0.00,Wunderground v.1.15,2013-07-03 15:00:00,
2013-07-03 11:10:00,76.7,71.8,30.17,SSE,148,1.0,7.0,85,0.00,,,0.00,Wunderground v.1.15,2013-07-03 15:10:00,
2013-07-03 11:20:00,77.9,73.4,30.17,East,97,1.0,8.0,86,0.00,,,0.00,Wunderground v.1.15,2013-07-03 15:20:00,
2013-07-03 11:30:00,77.9,72.0,30.17,ESE,121,2.0,2.0,82,0.00,,,0.00,Wunderground v.1.15,2013-07-03 15:30:00,
2013-07-03 11:40:00,78.5,72.2,30.17,SSE,157,1.0,1.0,81,0.00,,,0.00,Wunderground v.1.15,2013-07-03 15:40:00,
2013-07-03 12:00:00,79.9,72.8,30.16,ESE,121,1.0,1.0,79,0.00,,,0.00,Wunderground v.1.15,2013-07-03 16:00:00,
2013-07-03 12:10:00,80.9,71.8,30.16,SE,135,0.0,0.0,74,0.00,,,0.00,Wunderground v.1.15,2013-07-03 16:10:00,
2013-07-03 12:20:00,80.9,73.0,30.16,SSE,150,2.0,2.0,77,0.00,,,0.00,Wunderground v.1.15,2013-07-03 16:20:00,
2013-07-03 12:30:00,81.2,72.1,30.16,SE,143,1.0,1.0,74,0.00,,,0.00,Wunderground v.1.15,2013-07-03 16:30:00,
2013-07-03 12:40:00,82.2,71.0,30.16,SE,137,1.0,1.0,69,0.00,,,0.00,Wunderground v.1.15,2013-07-03 16:40:00,
2013-07-03 12:50:00,82.6,72.2,30.15,ESE,121,1.0,3.0,71,0.00,,,0.00,Wunderground v.1.15,2013-07-03 16:50:00,
2013-07-03 13:00:00,82.8,73.3,30.15,SE,145,1.0,1.0,73,0.00,,,0.00,Wunderground v.1.15,2013-07-03 17:00:00,
2013-07-03 13:10:00,83.2,73.6,30.15,SE,141,1.0,9.0,73,0.00,,,0.00,Wunderground v.1.15,2013-07-03 17:10:00,
2013-07-03 13:20:00,83.8,73.8,30.15,SSW,204,2.0,2.0,72,0.00,,,0.00,Wunderground v.1.15,2013-07-03 17:20:00,
2013-07-03 13:30:00,83.4,72.6,30.14,ESE,114,2.0,2.0,70,0.00,,,0.00,Wunderground v.1.15,2013-07-03 17:30:00,
2013-07-03 13:40:00,83.0,73.9,30.14,ESE,114,2.0,2.0,74,0.00,,,0.00,Wunderground v.1.15,2013-07-03 17:40:00,
2013-07-03 13:50:00,83.0,73.0,30.14,SSE,168,1.0,1.0,72,0.00,,,0.00,Wunderground v.1.15,2013-07-03 17:50:00,
2013-07-03 14:00:00,83.8,72.5,30.14,SE,144,1.0,9.0,69,0.00,,,0.00,Wunderground v.1.15,2013-07-03 18:00:00,
2013-07-03 14:10:00,83.4,72.6,30.14,East,101,3.0,3.0,70,0.00,,,0.00,Wunderground v.1.15,2013-07-03 18:10:00,
2013-07-03 14:20:00,83.4,72.6,30.14,SE,131,1.0,1.0,70,0.00,,,0.00,Wunderground v.1.15,2013-07-03 18:20:00,
2013-07-03 14:40:00,83.0,73.4,30.13,ESE,109,2.0,2.0,73,0.00,,,0.00,Wunderground v.1.15,2013-07-03 18:40:00,
2013-07-03 14:50:00,83.2,72.4,30.13,SE,143,1.0,1.0,70,0.00,,,0.00,Wunderground v.1.15,2013-07-03 18:50:00,
2013-07-03 15:00:00,84.3,73.4,30.13,East,97,0.0,9.0,70,0.00,,,0.00,Wunderground v.1.15,2013-07-03 19:00:00,
2013-07-03 15:10:00,83.2,72.8,30.13,SE,131,1.0,1.0,71,0.00,,,0.00,Wunderground v.1.15,2013-07-03 19:10:00,
2013-07-03 15:20:00,84.1,74.9,30.12,WNW,289,1.0,1.0,74,0.00,,,0.00,Wunderground v.1.15,2013-07-03 19:20:00,
2013-07-03 15:30:00,84.5,73.6,30.12,NE,50,1.0,1.0,70,0.00,,,0.00,Wunderground v.1.15,2013-07-03 19:30:00,
2013-07-03 15:40:00,84.0,73.6,30.12,SE,135,2.0,2.0,71,0.00,,,0.00,Wunderground v.1.15,2013-07-03 19:40:00,
2013-07-03 15:50:00,83.6,74.4,30.12,SSE,149,2.0,9.0,74,0.00,,,0.00,Wunderground v.1.15,2013-07-03 19:50:00,
2013-07-03 16:00:00,83.8,74.6,30.12,ESE,102,1.0,1.0,74,0.00,,,0.00,Wunderground v.1.15,2013-07-03 20:00:00,
2013-07-03 16:10:00,84.3,72.1,30.12,ESE,116,1.0,1.0,67,0.00,,,0.00,Wunderground v.1.15,2013-07-03 20:10:00,
2013-07-03 16:20:00,84.0,73.2,30.12,SSE,155,2.0,2.0,70,0.00,,,0.00,Wunderground v.1.15,2013-07-03 20:20:00,
2013-07-03 16:30:00,83.4,73.0,30.12,ESE,116,2.0,2.0,71,0.00,,,0.00,Wunderground v.1.15,2013-07-03 20:30:00,
2013-07-03 16:40:00,82.6,74.3,30.12,East,92,1.0,1.0,76,0.00,,,0.00,Wunderground v.1.15,2013-07-03 20:40:00,
2013-07-03 16:50:00,82.4,73.7,30.12,ESE,111,2.0,9.0,75,0.00,,,0.00,Wunderground v.1.15,2013-07-03 20:50:00,
2013-07-03 17:00:00,83.0,72.2,30.11,SE,145,3.0,9.0,70,0.00,,,0.00,Wunderground v.1.15,2013-07-03 21:00:00,
2013-07-03 17:10:00,83.2,72.0,30.11,ESE,110,2.0,2.0,69,0.00,,,0.00,Wunderground v.1.15,2013-07-03 21:10:00,
2013-07-03 17:20:00,83.0,72.6,30.11,SSE,162,3.0,3.0,71,0.00,,,0.00,Wunderground v.1.15,2013-07-03 21:20:00,
2013-07-03 17:30:00,83.0,73.9,30.11,SE,141,2.0,2.0,74,0.00,,,0.00,Wunderground v.1.15,2013-07-03 21:30:00,
2013-07-03 17:40:00,82.8,71.6,30.10,ESE,112,2.0,2.0,69,0.00,,,0.00,Wunderground v.1.15,2013-07-03 21:40:00,
2013-07-03 17:50:00,82.4,72.0,30.10,NE,42,2.0,2.0,71,0.00,,,0.00,Wunderground v.1.15,2013-07-03 21:50:00,
2013-07-03 18:00:00,82.4,72.5,30.10,SSE,168,1.0,9.0,72,0.00,,,0.00,Wunderground v.1.15,2013-07-03 22:00:00,
2013-07-03 18:10:00,82.4,72.5,30.10,ESE,111,1.0,1.0,72,0.00,,,0.00,Wunderground v.1.15,2013-07-03 22:10:00,
2013-07-03 18:20:00,81.2,73.3,30.09,ESE,121,1.0,1.0,77,0.00,,,0.00,Wunderground v.1.15,2013-07-03 22:20:00,
2013-07-03 18:30:00,80.9,73.4,30.09,SE,139,1.0,1.0,78,0.00,,,0.00,Wunderground v.1.15,2013-07-03 22:30:00,
2013-07-03 18:40:00,81.2,73.3,30.09,SSE,149,1.0,1.0,77,0.00,,,0.00,Wunderground v.1.15,2013-07-03 22:40:00,
2013-07-03 18:50:00,80.3,72.4,30.10,SE,142,1.0,1.0,77,0.00,,,0.00,Wunderground v.1.15,2013-07-03 22:50:00,
2013-07-03 19:00:00,80.1,72.2,30.10,ESE,112,0.0,0.0,77,0.00,,,0.00,Wunderground v.1.15,2013-07-03 23:00:00,
2013-07-03 19:10:00,79.9,72.8,30.10,ESE,121,0.0,8.0,79,0.00,,,0.00,Wunderground v.1.15,2013-07-03 23:10:00,
2013-07-03 19:20:00,79.8,72.7,30.10,SE,126,1.0,1.0,79,0.00,,,0.00,Wunderground v.1.15,2013-07-03 23:20:00,
2013-07-03 19:30:00,79.4,72.3,30.11,SE,131,1.0,1.0,79,0.00,,,0.00,Wunderground v.1.15,2013-07-03 23:30:00,
2013-07-03 19:40:00,78.8,72.5,30.11,East,85,1.0,8.0,81,0.00,,,0.00,Wunderground v.1.15,2013-07-03 23:40:00,
2013-07-03 19:50:00,78.5,72.2,30.12,ESE,114,1.0,8.0,81,0.00,,,0.00,Wunderground v.1.15,2013-07-03 23:50:00,
2013-07-03 20:00:00,77.9,72.3,30.12,ESE,102,0.0,8.0,83,0.00,,,0.00,Wunderground v.1.15,2013-07-04 00:00:00,
2013-07-03 20:10:00,77.2,72.3,30.12,ESE,104,0.0,8.0,85,0.00,,,0.00,Wunderground v.1.15,2013-07-04 00:10:00,
2013-07-03 20:20:00,76.7,71.8,30.12,SSE,149,0.0,8.0,85,0.00,,,0.00,Wunderground v.1.15,2013-07-04 00:20:00,
2013-07-03 20:30:00,76.5,71.3,30.12,ESE,117,1.0,1.0,84,0.00,,,0.00,Wunderground v.1.15,2013-07-04 00:30:00,
2013-07-03 20:40:00,76.1,71.3,30.12,ESE,109,1.0,1.0,85,0.00,,,0.00,Wunderground v.1.15,2013-07-04 00:40:00,
2013-07-03 20:50:00,76.1,71.3,30.12,ESE,112,0.0,8.0,85,0.00,,,0.00,Wunderground v.1.15,2013-07-04 00:50:00,
2013-07-03 21:00:00,75.8,71.3,30.12,SE,140,0.0,8.0,86,0.00,,,0.00,Wunderground v.1.15,2013-07-04 01:00:00,
2013-07-03 21:10:00,75.6,71.5,30.12,ESE,121,0.0,8.0,87,0.00,,,0.00,Wunderground v.1.15,2013-07-04 01:10:00,
2013-07-03 21:20:00,75.3,71.5,30.13,ESE,114,0.0,8.0,88,0.00,,,0.00,Wunderground v.1.15,2013-07-04 01:20:00,
2013-07-03 21:30:00,75.1,71.3,30.14,East,86,0.0,8.0,88,0.00,,,0.00,Wunderground v.1.15,2013-07-04 01:30:00,
2013-07-03 21:40:00,74.9,71.4,30.14,ESE,112,0.0,8.0,89,0.00,,,0.00,Wunderground v.1.15,2013-07-04 01:40:00,
2013-07-03 21:50:00,75.1,71.6,30.14,East,89,0.0,8.0,89,0.00,,,0.00,Wunderground v.1.15,2013-07-04 01:50:00,
2013-07-03 22:00:00,75.1,71.3,30.14,East,89,1.0,1.0,88,0.00,,,0.00,Wunderground v.1.15,2013-07-04 02:00:00,
2013-07-03 22:10:00,74.9,71.1,30.15,ESE,108,0.0,8.0,88,0.00,,,0.00,Wunderground v.1.15,2013-07-04 02:10:00,
2013-07-03 22:20:00,74.7,71.2,30.14,ENE,77,0.0,8.0,89,0.00,,,0.00,Wunderground v.1.15,2013-07-04 02:20:00,
2013-07-03 22:30:00,74.6,71.1,30.14,ESE,109,1.0,1.0,89,0.00,,,0.00,Wunderground v.1.15,2013-07-04 02:30:00,
2013-07-03 22:40:00,74.6,71.1,30.14,ESE,114,0.0,8.0,89,0.00,,,0.00,Wunderground v.1.15,2013-07-04 02:40:00,
2013-07-03 22:50:00,74.6,70.8,30.14,SSE,148,1.0,1.0,88,0.00,,,0.00,Wunderground v.1.15,2013-07-04 02:50:00,
2013-07-03 23:00:00,74.6,70.8,30.14,ESE,106,1.0,1.0,88,0.00,,,0.00,Wunderground v.1.15,2013-07-04 03:00:00,
2013-07-03 23:10:00,74.4,70.6,30.14,ESE,114,0.0,8.0,88,0.00,,,0.00,Wunderground v.1.15,2013-07-04 03:10:00,
2013-07-03 23:20:00,74.2,70.7,30.15,ESE,111,0.0,8.0,89,0.00,,,0.00,Wunderground v.1.15,2013-07-04 03:20:00,
2013-07-03 23:30:00,73.9,70.5,30.15,ESE,111,0.0,8.0,89,0.00,,,0.00,Wunderground v.1.15,2013-07-04 03:30:00,
2013-07-03 23:40:00,73.7,70.6,30.15,ESE,111,0.0,8.0,90,0.00,,,0.00,Wunderground v.1.15,2013-07-04 03:40:00,
2013-07-03 23:50:00,73.7,70.6,30.16,ESE,111,0.0,8.0,90,0.00,,,0.00,Wunderground v.1.15,2013-07-04 03:50:00,